This is the latest recevied weather packets stored in our database for station/object wb2ifs-13. If no packets are shown the sender has not sent any weather packets the latest 10 day(s).
| Time | Temp. | Humidity | Pressure | Rain* | Wind** | Luminosity | Snow |
|---|---|---|---|---|---|---|---|
| 1777852801 | 13.33° C | 44% | 1015.3 hPa | 0 mm | - | - | - |
| 1777851900 | 13.89° C | 46% | 1015.3 hPa | 0 mm | - | - | - |
| 1777851000 | 14.44° C | 36% | 1015 hPa | 0 mm | - | - | - |
| 1777850099 | 15° C | 37% | 1015.1 hPa | 0 mm | - | - | - |
| 1777849201 | 15.56° C | 35% | 1014.9 hPa | 0 mm | - | - | - |
| 1777848299 | 15.56° C | 35% | 1015 hPa | 0 mm | - | - | - |
| 1777847399 | 16.11° C | 38% | 1015 hPa | 0 mm | - | - | - |
| 1777846499 | 16.67° C | 34% | 1015.1 hPa | 0 mm | - | - | - |
| 1777845602 | 17.22° C | 32% | 1015.1 hPa | 0 mm | - | - | - |
| 1777844699 | 17.78° C | 31% | 1015.1 hPa | 0 mm | - | - | - |
| 1777843798 | 17.78° C | 33% | 1015.1 hPa | 0 mm | - | - | - |
| 1777842899 | 17.78° C | 34% | 1015.3 hPa | 0 mm | - | - | - |
| 1777842001 | 17.78° C | 33% | 1015.2 hPa | 0 mm | - | - | - |
| 1777841099 | 17.78° C | 35% | 1015.1 hPa | 0 mm | - | - | - |
| 1777840199 | 17.78° C | 32% | 1015.2 hPa | 0 mm | - | - | - |
| 1777839299 | 17.22° C | 36% | 1015.5 hPa | 0 mm | - | - | - |
| 1777838399 | 17.22° C | 33% | 1015.8 hPa | 0 mm | - | - | - |
| 1777837499 | 17.22° C | 34% | 1015.9 hPa | 0 mm | - | - | - |
| 1777836599 | 17.22° C | 38% | 1016.1 hPa | 0 mm | - | - | - |
| 1777835698 | 16.67° C | 37% | 1016.2 hPa | 0 mm | - | - | - |
| 1777834799 | 16.67° C | 37% | 1016.4 hPa | 0 mm | - | - | - |
| 1777833899 | 16.11° C | 34% | 1016.5 hPa | 0 mm | - | - | - |
| 1777833000 | 16.11° C | 37% | 1016.6 hPa | 0 mm | - | - | - |
| 1777832098 | 16.11° C | 35% | 1016.8 hPa | 0 mm | - | - | - |
| 1777831199 | 15.56° C | 35% | 1016.8 hPa | 0 mm | - | - | - |
* Rain latest hour (hover to see other rain measurements)
** Current wind speed in m/s (hover to see current wind gust speed)